Weather History for Ruston, LA

Change the Weather History Date:

Sunday, December 23, 2012

  Actual Average Record
Temperature  
Mean Temperature 57 °F -  
Max Temperature 64 °F 55 °F 75 °F (1956)
Min Temperature 50 °F 35 °F 0 °F (1989)
Degree Days  
Heating Degree Days 8    
Growing Degree Days 7 (Base 50)    
Moisture  
Dew Point 52 °F    
Average Humidity 79    
Maximum Humidity 100    
Minimum Humidity 56    
Precipitation  
Precipitation 0.00 in - - ()
Sea Level Pressure  
Sea Level Pressure 30.01 in    
Wind  
Wind Speed 8 mph (South)    
Max Wind Speed 15 mph    
Max Gust Speed 22 mph    
Visibility 10 miles    
Events Rain    
Averages and records for this station are not official NWS values.
T = Trace of Precipitation, MM = Missing Value Source: NWS Daily Summary

Daily Weather History Graph

Daily Weather History Graph

Search for Another Location

Airport:

Trip Planner

Search our weather history database for the weather conditions in past years. The results will help you decide how hot, cold, wet, or windy it might be!

Date:

Astronomy

Dec. 23, 2012 Rise Set
Actual Time 7:09 AM CST 5:10 PM CST
Civil Twilight 6:42 AM CST 5:37 PM CST
Nautical Twilight 6:11 AM CST 6:08 PM CST
Astronomical Twilight 5:41 AM CST 6:38 PM CST
Moon 1:55 PM CST (12/23) 2:59 AM CST (12/23)
Length of Visible Light 10h 55m
Length of Day
10h 00m
Waxing Gibbous, 82% of the Moon is Illuminated
Dec 23
Waxing Gibbous
Dec 28
Full
Jan 4
Last Quarter
Jan 11
New
Jan 18
First Quarter

Hourly Weather History & Observations

Time (CST) Temp. Dew Point Humidity Pressure Visibility Wind Dir Wind Speed Gust Speed Precip Events Conditions
12:15 AM 52.7 °F 37.4 °F 56% 30.18 in 10.0 mi South 9.2 mph - N/A   Overcast
12:35 AM 52.7 °F 37.4 °F 56% 30.17 in 10.0 mi South 6.9 mph - N/A   Overcast
12:55 AM 52.9 °F 37.8 °F 56% 30.16 in 10.0 mi SSW 9.2 mph - N/A   Overcast
1:15 AM 53.2 °F 38.1 °F 57% 30.16 in 10.0 mi SSW 6.9 mph - N/A   Overcast
1:35 AM 53.1 °F 38.5 °F 58% 30.16 in 10.0 mi South 6.9 mph - N/A   Overcast
1:55 AM 53.1 °F 39.0 °F 59% 30.15 in 10.0 mi South 8.1 mph - N/A   Overcast
2:15 AM 53.2 °F 39.4 °F 59% 30.15 in 10.0 mi South 6.9 mph - N/A   Overcast
2:35 AM 53.2 °F 39.9 °F 61% 30.15 in 10.0 mi South 8.1 mph - N/A   Overcast
2:55 AM 53.2 °F 40.3 °F 61% 30.14 in 10.0 mi South 8.1 mph - N/A   Overcast
3:15 AM 53.2 °F 40.5 °F 62% 30.14 in 10.0 mi South 6.9 mph - N/A   Overcast
3:35 AM 53.1 °F 41.2 °F 64% 30.13 in 10.0 mi South 6.9 mph - N/A   Overcast
3:55 AM 53.1 °F 41.0 °F 64% 30.12 in 10.0 mi South 6.9 mph - N/A   Overcast
4:15 AM 52.7 °F 41.0 °F 64% 30.12 in 10.0 mi SSE 5.8 mph - N/A   Overcast
4:35 AM 52.2 °F 40.8 °F 65% 30.12 in 10.0 mi SSE 5.8 mph - N/A   Overcast
4:55 AM 51.8 °F 40.3 °F 65% 30.11 in 10.0 mi SSE 6.9 mph - N/A   Overcast
5:15 AM 51.4 °F 40.6 °F 67% 30.11 in 10.0 mi SSE 5.8 mph - N/A   Overcast
5:35 AM 51.4 °F 41.0 °F 68% 30.11 in 10.0 mi South 8.1 mph - N/A   Overcast
5:55 AM 51.1 °F 42.8 °F 73% 30.10 in 10.0 mi South 9.2 mph - N/A Rain Rain
6:15 AM 50.9 °F 43.0 °F 74% 30.11 in 10.0 mi South 6.9 mph - N/A   Overcast
6:35 AM 51.8 °F 43.3 °F 73% 30.11 in 10.0 mi South 5.8 mph - N/A   Overcast
6:55 AM 52.0 °F 44.6 °F 76% 30.11 in 10.0 mi South 9.2 mph - N/A   Overcast
7:15 AM 52.2 °F 44.6 °F 75% 30.11 in 10.0 mi South 6.9 mph - N/A   Overcast
7:35 AM 52.3 °F 45.0 °F 76% 30.10 in 10.0 mi South 8.1 mph - N/A   Unknown
7:55 AM 52.2 °F 45.5 °F 78% 30.10 in 10.0 mi South 9.2 mph - N/A   Mostly Cloudy
8:15 AM 52.7 °F 46.4 °F 79% 30.10 in 10.0 mi South 8.1 mph - N/A   Mostly Cloudy
8:35 AM 53.4 °F 46.8 °F 78% 30.10 in 10.0 mi South 6.9 mph - N/A   Mostly Cloudy
8:55 AM 54.3 °F 47.5 °F 78% 30.10 in 10.0 mi South 6.9 mph - N/A   Overcast
9:15 AM 55.0 °F 48.2 °F 78% 30.10 in 10.0 mi South 5.8 mph - N/A   Overcast
9:35 AM 56.3 °F 49.1 °F 77% 30.10 in 10.0 mi South 6.9 mph - N/A   Overcast
9:55 AM 58.1 °F 50.2 °F 75% 30.09 in 10.0 mi South 12.7 mph - N/A   Overcast
10:15 AM 59.0 °F 50.9 °F 74% 30.08 in 10.0 mi South 12.7 mph - N/A   Overcast
10:35 AM 59.9 °F 51.1 °F 73% 30.08 in 10.0 mi South 15.0 mph 19.6 mph N/A   Overcast
10:55 AM 60.8 °F 52.2 °F 73% 30.07 in 10.0 mi South 12.7 mph 18.4 mph N/A   Mostly Cloudy
11:15 AM 61.3 °F 53.1 °F 74% 30.05 in 10.0 mi South 10.4 mph - N/A   Mostly Cloudy
11:35 AM 62.8 °F 53.6 °F 72% 30.04 in 10.0 mi South 13.8 mph - N/A   Overcast
11:55 AM 63.1 °F 54.3 °F 73% 30.02 in 10.0 mi SSW 11.5 mph 19.6 mph N/A   Overcast
12:15 PM 63.1 °F 55.0 °F 75% 30.01 in 10.0 mi SSW 13.8 mph 20.7 mph N/A   Overcast
12:35 PM 63.3 °F 55.4 °F 75% 29.99 in 10.0 mi SSW 11.5 mph 21.9 mph N/A   Overcast
12:55 PM 63.1 °F 56.5 °F 79% 29.98 in 10.0 mi South 11.5 mph - N/A   Overcast
1:15 PM 63.5 °F 55.9 °F 76% 29.97 in 10.0 mi South 12.7 mph - N/A   Overcast
1:35 PM 63.3 °F 56.3 °F 78% 29.96 in 10.0 mi South 9.2 mph - N/A   Overcast
1:55 PM 63.5 °F 56.5 °F 78% 29.94 in 10.0 mi South 12.7 mph 17.3 mph N/A   Overcast
2:15 PM 64.4 °F 56.8 °F 76% 29.93 in 10.0 mi South 15.0 mph - N/A   Overcast
2:35 PM 64.6 °F 57.2 °F 77% 29.93 in 10.0 mi South 11.5 mph - N/A   Overcast
2:55 PM 64.8 °F 57.4 °F 77% 29.93 in 10.0 mi South 10.4 mph - N/A   Overcast
3:15 PM 64.4 °F 57.6 °F 78% 29.93 in 10.0 mi South 8.1 mph - N/A   Overcast
3:35 PM 64.4 °F 57.6 °F 78% 29.93 in 10.0 mi South 12.7 mph - N/A   Overcast
3:55 PM 63.9 °F 57.7 °F 80% 29.92 in 10.0 mi South 8.1 mph - N/A   Mostly Cloudy
4:15 PM 63.9 °F 58.1 °F 81% 29.91 in 10.0 mi South 8.1 mph - N/A   Scattered Clouds
4:35 PM 63.5 °F 58.1 °F 83% 29.90 in 10.0 mi SSE 6.9 mph - N/A   Clear
4:55 PM 62.8 °F 58.1 °F 85% 29.90 in 10.0 mi South 8.1 mph - N/A   Clear
5:15 PM 62.6 °F 58.3 °F 86% 29.89 in 10.0 mi South 9.2 mph - N/A   Clear
5:35 PM 62.2 °F 58.8 °F 89% 29.89 in 10.0 mi South 6.9 mph - N/A   Clear
5:55 PM 62.2 °F 59.0 °F 89% 29.89 in 10.0 mi South 8.1 mph - N/A   Clear
6:15 PM 62.1 °F 59.9 °F 93% 29.89 in 10.0 mi South 8.1 mph - N/A   Clear
6:35 PM 62.4 °F 61.0 °F 95% 29.88 in 10.0 mi South 10.4 mph - N/A   Scattered Clouds
6:55 PM 62.6 °F 61.5 °F 96% 29.89 in 10.0 mi South 9.2 mph - N/A   Scattered Clouds
7:15 PM 63.1 °F 62.1 °F 96% 29.90 in 10.0 mi South 10.4 mph - N/A   Clear
7:35 PM 63.3 °F 62.2 °F 96% 29.91 in 10.0 mi South 9.2 mph - N/A   Mostly Cloudy
7:55 PM 63.1 °F 62.6 °F 98% 29.91 in 10.0 mi South 8.1 mph - N/A   Mostly Cloudy
8:15 PM 63.1 °F 62.8 °F 99% 29.91 in 10.0 mi South 8.1 mph - N/A   Mostly Cloudy
8:35 PM 63.5 °F 63.0 °F 98% 29.91 in 10.0 mi South 6.9 mph - N/A   Mostly Cloudy
8:55 PM 63.9 °F 63.0 °F 97% 29.91 in 10.0 mi SSW 8.1 mph - N/A   Overcast
9:15 PM 63.9 °F 62.8 °F 96% 29.91 in 10.0 mi South 8.1 mph - N/A   Overcast
9:35 PM 63.7 °F 63.0 °F 97% 29.90 in 10.0 mi South 6.9 mph - N/A   Overcast
9:55 PM 63.5 °F 63.0 °F 98% 29.90 in 10.0 mi South 8.1 mph - N/A   Mostly Cloudy
10:15 PM 63.0 °F 63.0 °F 100% 29.89 in 10.0 mi South 8.1 mph - N/A   Scattered Clouds
10:35 PM 63.0 °F 63.0 °F 100% 29.90 in 10.0 mi SSW 6.9 mph - N/A   Scattered Clouds
10:55 PM 63.0 °F 63.0 °F 100% 29.90 in 10.0 mi SSW 5.8 mph - N/A   Scattered Clouds
11:15 PM 63.1 °F 63.1 °F 100% 29.89 in 10.0 mi SW 3.5 mph - N/A   Mostly Cloudy
11:35 PM 63.7 °F 63.7 °F 100% 29.89 in 10.0 mi SSW 5.8 mph - N/A   Overcast
11:55 PM 64.0 °F 64.0 °F 100% 29.89 in 10.0 mi SSW 6.9 mph - N/A   Overcast